2024/04/15 00:00:00, 3.7,11.0
2024/04/15 00:10:00,11.2,10.9
2024/04/15 00:20:00,28.8,10.6
2024/04/15 00:30:00,28.2,10.5
2024/04/15 00:40:00,28.2,10.3
2024/04/15 00:50:00,28.2,10.2
2024/04/15 01:00:00,28.2, 9.9
2024/04/15 01:10:00,28.2,10.2
2024/04/15 01:20:00,28.2,10.6
2024/04/15 01:30:00,28.2,10.5
2024/04/15 01:40:00,28.2,10.3
2024/04/15 01:50:00,28.2,10.2
2024/04/15 02:00:00,28.2,10.1
2024/04/15 02:10:00,28.2,10.0
2024/04/15 02:20:00,27.2, 9.8
2024/04/15 02:30:00,27.2, 9.8
2024/04/15 02:40:00,26.6, 9.6
2024/04/15 02:50:00,26.6,10.9
2024/04/15 03:00:00,25.6,14.0
2024/04/15 03:10:00,16.0,14.4
2024/04/15 03:20:00, 2.8,14.2
2024/04/15 03:30:00, 3.4,14.4
2024/04/15 03:40:00, 5.3,14.2
2024/04/15 03:50:00, 5.2,14.5
2024/04/15 04:00:00, 4.5,14.5
2024/04/15 04:10:00, 3.6,14.5
2024/04/15 04:20:00, 3.1,14.5
2024/04/15 04:30:00, 0.8,14.3
2024/04/15 04:40:00, 2.2,14.3
2024/04/15 04:50:00, 3.2,14.2
2024/04/15 05:00:00, 1.9,14.1
2024/04/15 05:10:00, 3.0,14.3
2024/04/15 05:20:00, 2.2,14.3
2024/04/15 05:30:00, 2.5,14.5
2024/04/15 05:40:00, 3.2,14.5
2024/04/15 05:50:00, 3.2,14.5
2024/04/15 06:00:00, 3.9,14.5
2024/04/15 06:10:00, 4.1,14.5
2024/04/15 06:20:00, 3.9,14.5
2024/04/15 06:30:00, 3.7,14.9
2024/04/15 06:40:00, 3.2,15.1
2024/04/15 06:50:00, 3.4,15.4
2024/04/15 07:00:00, 0.3,15.6
2024/04/15 07:10:00, 0.1,15.8
2024/04/15 07:20:00, 0.1,16.0
2024/04/15 07:30:00, 3.1,16.3
2024/04/15 07:40:00, 4.4,16.6
2024/04/15 07:50:00, 3.2,16.8
2024/04/15 08:00:00, 3.6,17.3
2024/04/15 08:10:00, 7.9,17.6
2024/04/15 08:20:00,12.8,18.0
2024/04/15 08:30:00,15.8,18.4
2024/04/15 08:40:00,15.0,18.6
2024/04/15 08:50:00,15.5,18.9
2024/04/15 09:00:00, 8.0,19.4
2024/04/15 09:10:00,12.1,19.2
2024/04/15 09:20:00, 5.2,19.3
2024/04/15 09:30:00, 8.9,19.7
2024/04/15 09:40:00, 2.9,19.1
2024/04/15 09:50:00, 0.1,19.2
2024/04/15 10:00:00, 2.9,20.1
2024/04/15 10:10:00, 1.8,20.2
2024/04/15 10:20:00, 0.3,20.0
2024/04/15 10:30:00, 0.1,21.0
2024/04/15 10:40:00, 0.9,20.9
2024/04/15 10:50:00, 3.5,20.8
2024/04/15 11:00:00, 6.0,21.1
2024/04/15 11:10:00,13.3,21.5
2024/04/15 11:20:00, 5.4,22.5
2024/04/15 11:30:00, 8.8,23.2
2024/04/15 11:40:00, 7.5,23.2
2024/04/15 11:50:00, 1.5,22.8
2024/04/15 12:00:00, 0.5,22.8
2024/04/15 12:10:00, 1.0,23.9
2024/04/15 12:20:00, 3.0,23.7
2024/04/15 12:30:00,10.2,24.0
2024/04/15 12:40:00, 9.2,22.3
2024/04/15 12:50:00, 5.4,23.0
2024/04/15 13:00:00, 1.0,22.1
2024/04/15 13:10:00, 0.0,22.2
2024/04/15 13:20:00, 1.9,22.4
2024/04/15 13:30:00, 8.4,22.3
2024/04/15 13:40:00, 5.8,22.3
2024/04/15 13:50:00, 6.7,21.8
2024/04/15 14:00:00, 7.5,21.5
2024/04/15 14:10:00, 4.7,22.2
2024/04/15 14:20:00, 0.0,22.3
2024/04/15 14:30:00, 0.0,21.9
2024/04/15 14:40:00, 0.0,22.0
2024/04/15 14:50:00, 0.0,21.2
2024/04/15 15:00:00, 0.0,20.8
2024/04/15 15:10:00, 0.0,20.6
2024/04/15 15:20:00, 0.0,20.4
2024/04/15 15:30:00, 0.0,20.2
2024/04/15 15:40:00, 0.0,20.4
2024/04/15 15:50:00, 0.0,19.9
2024/04/15 16:00:00, 0.0,19.8
2024/04/15 16:10:00, 0.0,19.3
2024/04/15 16:20:00, 0.0,19.5
2024/04/15 16:30:00, 0.0,19.5
2024/04/15 16:40:00, 0.0,19.3
2024/04/15 16:50:00, 0.0,19.0
2024/04/15 17:00:00, 0.0,18.7
2024/04/15 17:10:00, 0.0,17.9
2024/04/15 17:20:00, 0.0,17.5
2024/04/15 17:30:00, 0.0,17.7
2024/04/15 17:40:00, 0.0,17.6
2024/04/15 17:50:00, 0.0,17.5
2024/04/15 18:00:00, 0.0,17.4
2024/04/15 18:10:00, 0.0,17.4
2024/04/15 18:20:00, 0.0,17.3
2024/04/15 18:30:00, 0.0,17.3
2024/04/15 18:40:00, 0.0,17.0
2024/04/15 18:50:00, 0.0,16.8
2024/04/15 19:00:00, 0.0,16.3
2024/04/15 19:10:00, 0.0,15.4
2024/04/15 19:20:00, 0.0,15.7
2024/04/15 19:30:00, 0.0,15.7
2024/04/15 19:40:00, 0.0,15.9
2024/04/15 19:50:00, 0.0,15.6
2024/04/15 20:00:00, 0.0,15.3
2024/04/15 20:10:00, 0.0,15.4
2024/04/15 20:20:00, 0.0,15.4
2024/04/15 20:30:00, 0.0,15.6
2024/04/15 20:40:00, 0.0,15.7
2024/04/15 20:50:00, 0.0,15.9
2024/04/15 21:00:00, 0.0,15.6
2024/04/15 21:10:00, 0.0,15.7
2024/04/15 21:20:00, 0.0,15.6
2024/04/15 21:30:00, 0.0,15.7
2024/04/15 21:40:00, 0.0,15.9
2024/04/15 21:50:00, 0.0,15.8
2024/04/15 22:00:00, 0.0,15.8
2024/04/15 22:10:00, 0.0,15.5
2024/04/15 22:20:00, 0.0,15.7
2024/04/15 22:30:00, 0.0,15.8
2024/04/15 22:40:00, 0.0,15.6
2024/04/15 22:50:00, 0.0,15.5
2024/04/15 23:00:00, 0.0,15.7
2024/04/15 23:10:00, 0.0,15.6
2024/04/15 23:20:00, 0.0,15.1
2024/04/15 23:30:00, 0.0,15.5
2024/04/15 23:40:00, 0.0,15.4
2024/04/15 23:50:00, 0.0,15.5
